Location: Kitt Peak
(31.9639°N, 111.5992°W)
Time: 14:11:11
(UTC-07:00)

SRMSAT - Pass Details

Date: 19 December 2025
Orbit: 846 x 863 km, 20.0° (Epoch: 13 January)

Event Time Altitude Azimuth Distance (km) Brightness Sun altitude
Exits shadow 03:59:46 15° 132° (SE) 2,151 ? -41.9°
Drops below altitude 10° 04:00:58 10° 123° (ESE) 2,458 ? -41.6°
Sets 04:04:01 0° 109° (ESE) 3,398 ? -41.0°
